"Pseudo-MPEC" for ZTF0FaZ

Created 2020 Oct 21 7:07:38 UT using Find_Orb

Click here for an explanation of pseudo-MPECs

 
 Astrometry: 
     ZTF0FaZ  C2020 10 16.29328701 02 22.07 -26 39 36.5    ~AG7b 15.32RUNEOCPI41
     ZTF0FaZ  C2020 10 16.29363401 02 31.60 -26 40 16.4    ~AG7b 15.32RUNEOCPI41
     ZTF0FaZ  C2020 10 16.29422501 02 47.69 -26 41 24.3    ~AG7b 15.30RUNEOCPI41
     ZTF0FaZ  C2020 10 16.29457201 02 57.20 -26 42 03.2    ~AG7b 15.30RUNEOCPI41

Station data:
(I41) Palomar Mountain--ZTF  (N33.357340 W116.859780)  US/California. 1.2-m
   f/2.44 Oschin Schmidt + CCD.

Orbital elements:  ZTF0FaZ
   Perigee 2020 Oct 16.126941 +/- 34 TT =  3:02:47 (JD 2459138.626941)
Epoch 2020 Oct 16.0 TT = JDT 2459138.5                        AutoNEOCP
M 353.60963793 +/- 31               (J2000 equator)
n  50.34120572 +/- 0.454            Peri.  218.39834 +/- 55
a156790.988 +/- 5.89e+7             Node   139.22367 +/- 60
e   0.3966472 +/- 0.237             Incl.   27.47966 +/- 10
P   7.15d                  H 30.4   G  0.15   U 12.2  SR
q 94600.2767 +/- 2.72e+7    Q 218981.699 +/- 4.67e+9
From 4 observations 2020 Oct. 16 (1.9 min); mean residual 0".27
Residuals in arcseconds: 
201016 I41  .24-  .12+    201016 I41  .30-  .38-    
201016 I41  .44+  .03-    201016 I41  .10+  .29+    

Ephemerides (geocentric):
Date (UTC) HH   RA              Dec         delta   r     elong  mag " sig PA
---- -- -- --  -------------   -----------  ------ ------ -----  --- ---- ---
2020 10 21 07  14 35 44.712   +27 04 22.01  185571 0.9945  39.9 22?? 121d   1
2020 10 21 08  14 41 57.548   +27 10 32.89  183861 0.9945  40.5 22?? 121d   1
2020 10 21 09  14 48 18.123   +27 15 47.14  182108 0.9945  41.1 22?? 122d   1
2020 10 21 10  14 54 46.743   +27 20 01.03  180311 0.9945  41.8 22?? 123d   1
2020 10 21 11  15 01 23.721   +27 23 10.52  178472 0.9945  42.5 22?? 123d   1
2020 10 21 12  15 08 09.379   +27 25 11.29  176591 0.9945  43.3 22?? 124d   2
2020 10 21 13  15 15 04.052   +27 25 58.64  174667 0.9945  44.1 22?? 124d   2
2020 10 21 14  15 22 08.081   +27 25 27.50  172702 0.9945  44.9 21?? 124d   2
2020 10 21 15  15 29 21.817   +27 23 32.42  170696 0.9945  45.8 21?? 124d   3
2020 10 21 16  15 36 45.622   +27 20 07.52  168649 0.9945  46.8 21?? 124d   3
2020 10 21 17  15 44 19.865   +27 15 06.46  166563 0.9946  47.8 21?? 124d   3
2020 10 21 18  15 52 04.926   +27 08 22.41  164438 0.9946  48.8 21?? 124d   3
2020 10 21 19  16 00 01.191   +26 59 48.03  162275 0.9946  50.0 21?? 124d   3
2020 10 21 20  16 08 09.057   +26 49 15.42  160075 0.9946  51.1 21?? 124d   3
2020 10 21 21  16 16 28.929   +26 36 36.12  157840 0.9946  52.3 20?? 124d   3
2020 10 21 22  16 25 01.219   +26 21 41.03  155570 0.9946  53.6 20?? 123d   4
2020 10 21 23  16 33 46.348   +26 04 20.43  153268 0.9946  55.0 20?? 122d   5
2020 10 22 00  16 42 44.744   +25 44 23.91  150935 0.9947  56.4 20?? 119d   5
2020 10 22 01  16 51 56.846   +25 21 40.40  148574 0.9947  57.9 20?? 120d   5
2020 10 22 02  17 01 23.099   +24 55 58.09  146186 0.9947  59.4 20?? 120d   5
2020 10 22 03  17 11 03.957   +24 27 04.49  143775 0.9947  61.1 20.0 120d   5
2020 10 22 04  17 20 59.887   +23 54 46.38  141344 0.9947  62.8 19.9 120d   5
2020 10 22 05  17 31 11.366   +23 18 49.89  138895 0.9948  64.6 19.7 120d   6
2020 10 22 06  17 41 38.882   +22 39 00.50  136432 0.9948  66.4 19.5 118d   6
2020 10 22 07  17 52 22.943   +21 55 03.10  133961 0.9948  68.4 19.4 116d   7
2020 10 22 08  18 03 24.073   +21 06 42.17  131485 0.9948  70.5 19.2 117d   7
2020 10 22 09  18 14 42.819   +20 13 41.85  129011 0.9949  72.6 19.0 115d   7
2020 10 22 10  18 26 19.756   +19 15 46.21  126544 0.9949  74.9 18.9 115d   7
2020 10 22 11  18 38 15.490   +18 12 39.48  124090 0.9949  77.2 18.7 113d   7
2020 10 22 12  18 50 30.667   +17 04 06.43  121659 0.9949  79.7 18.5 114d   7
2020 10 22 13  19 03 05.975   +15 49 52.82  119257 0.9950  82.3 18.4 113d   8
2020 10 22 14  19 16 02.156   +14 29 45.98  116894 0.9950  85.0 18.2 112d   8
2020 10 22 15  19 29 20.007   +13 03 35.46  114580 0.9950  87.8 18.0 111d   8
2020 10 22 16  19 43 00.392   +11 31 13.94  112327 0.9950  90.7 17.9 108d   8
2020 10 22 17  19 57 04.240   +09 52 38.12  110145 0.9951  93.7 17.7 109d   8
2020 10 22 18  20 11 32.549   +08 07 49.96  108048 0.9951  96.9 17.5 109d   8
2020 10 22 19  20 26 26.379   +06 16 57.83  106050 0.9951 100.1 17.4 108d   8
2020 10 22 20  20 41 46.845   +04 20 17.95  104165 0.9951 103.5 17.2 108d   8
2020 10 22 21  20 57 35.092   +02 18 15.67  102407 0.9952 107.0 17.1 105d   8
2020 10 22 22  21 13 52.262   +00 11 26.85  100792 0.9952 110.5 16.9  99d   8
2020 10 22 23  21 30 39.443   -01 59 21.13   99334 0.9952 114.1 16.8  97d   8
2020 10 23 00  21 47 57.597   -04 13 08.65   98050 0.9952 117.6 16.6  97d   8
2020 10 23 01  22 05 47.465   -06 28 43.65   96951 0.9953 121.2 16.5  94d   7
2020 10 23 02  22 24 09.448   -08 44 42.32   96052 0.9953 124.8 16.4  91d   7
2020 10 23 03  22 43 03.460   -10 59 30.54   95362 0.9953 128.2 16.3  91d   7
2020 10 23 04  23 02 28.772   -13 11 26.42   94891 0.9953 131.4 16.2  88d   7
2020 10 23 05  23 22 23.838   -15 18 43.73   94645 0.9953 134.4 16.1  80d   4
2020 10 23 06  23 42 46.145   -17 19 36.27   94626 0.9953 137.1 16.0  77d   3